Simultaneous Nadir Overpasses (SNOs) Predictions

Prediction of SNOs between NOAA-19 and METOP-C Satellite Orbit:

Table of predicted SNOs for the next 14.0 days since TLE Epoch: 3/9/2024
Index Date (NOAA-19) Time (NOAA-19) Lat,Lon (NOAA-19) SZA (NOAA-19 ) Date (METOP-C) Time (METOP-C) Lat,Lon (METOP-C) SZA (METOP-C ) Distance(km) Time Diff (sec)
1 03/11/2024 16:56:33 -80.36, 131.56 95.58 03/11/2024 16:57:41 -80.37, 131.63 95.55 1.53 68
2 03/11/2024 17:47:36 80.38, -60.92 84.44 03/11/2024 17:48:20 80.38, -60.85 84.46 1.31 44
3 03/11/2024 18:38:29 -80.41, 106.84 95.52 03/11/2024 18:39:01 -80.41, 106.80 95.51 0.72 32
4 03/11/2024 19:29:32 80.43, -85.64 84.51 03/11/2024 19:29:40 80.42, -85.69 84.51 0.95 8
5 03/11/2024 20:20:25 -80.46, 82.12 95.45 03/11/2024 20:20:21 -80.45, 81.97 95.47 2.93 4
6 03/11/2024 21:11:28 80.47,-110.35 84.58 03/11/2024 21:11:00 80.46,-110.51 84.55 3.20 28
7 03/11/2024 22:02:23 -80.46, 56.74 95.46 03/11/2024 22:01:42 -80.46, 56.82 95.47 1.46 41



Historial Predications of SNOs between NOAA-19 and METOP-C
